ARIANE 2 DEB, 27038

Orbit data source: Space-Track

ARIANE 2 DEB, 27038 is space debris in HEO originally from a launch on Fri, 27 Jan 1989 UTC launched from the French Guiana (FRGUI). Debris objects in space refer to the collection of defunct objects orbiting the Earth. Examples of debris include non-operational satellites, rocket bodies, and fragments generated from explosions, collisions, or faulty payload assembly.

Loading next visibility...
Identifier
27038, 1989-006T
Orbit
HEO
Country
Flag of FRFR
Related business
Manufacturer
EADS/LV
Mission
Spacecraft
Bus & Motor
Unknown
Mass
Unknown
Launch date (UTC)
1989-01-27 (37 years ago)
Launch vehicle
Unknown
Launch site
French Guiana (FRGUI)
Object type
Payload
Rocket body
Debris
Shape & HBR
Unknown shape, 0.3 m
Radar Cross Section
Medium (>0.1 m² and <1 m²)

Expand to show TLE details & history
Last TLE update: 1 day ago

TLE from 1 day ago
0 ARIANE 2 DEB
1 27038U 89006T   26103.84575987 -.00000101  00000-0 -67431-5 0  9998
2 27038   8.8641 331.9121 7196050 278.4826  12.6134  2.31069356207511
Epoch: 2026-04-13T20:17Z
TLE epoch observation values (Epoch: 2026-04-13T20:17:53.652Z)
Latitude
0.00044°
Longitude
-174.71817°
Altitude
4,164.434 km
Speed
7.689 km/s
True Right ascension
22h 07m 08s
True Declination
0° 00' 02"
Sunlit
Object was in daylight at epoch
Visualization orbit readout
Latitude
Unknown
Longitude
Unknown
Altitude
Unknown
Speed
Unknown
Apparent Right ascension
Unknown
Apparent Declination
Unknown
Sunlit
N/A
Visualization observer readout
Local Sidereal Time
05:50:35
Azimuth
Unknown
Elevation
Unknown
Doppler factor
Unknown
Orbital elements
Apogee altitude
35,190.288 km
Perigee altitude
399.919 km
Semi-major axis
24,173.24 km
Eccentricity
0.71961
Inclination
8.8641°
RAAN
331.9121°
Arg. of periapsis
278.4826°
True anomaly
80.89917°
Mean anomaly
12.6134°
Eccentric anomaly
37.99382°
Mean motion
0.57749 °/min
Orbital period
623.39 mins
BSTAR
-0.0000067431
Loading maneuver chart data...
Computing Atmospheric mass density...
Loading historical data...
Loading historical data...
Loading historical data...
Loading historical data...
Loading historical data...
Loading historical data...
Loading historical data...

Documentation

Showing up to 5 results
|